Theta_e
316 319 324 330 341 345 348 348 344 346 335 334 334 336 335 334 337 334 339 339 340 344 344 337 338 337 333 333 334 331 330 325 324 324 326 329 331 332 332 331 332 336 332 329 333 333 334 341 342
316 317 325 321 340 350 345 345 346 339 333 333 333 334 335 337 335 341 342 338 343 339 330 331 335 334 334 335 333 331 326 325 325 325 327 328 331 332 333 334 336 335 332 332 333 335 339 341 341
316 320 315 316 338 347 344 342 343 335 335 335 335 333 334 336 337 336 335 337 342 333 330 332 333 334 335 333 330 327 326 326 326 326 326 327 330 333 335 336 337 337 334 332 334 335 337 339 339
320 319 314 316 324 339 342 339 338 337 335 332 332 334 333 334 334 330 335 335 329 330 330 332 333 332 330 330 329 326 326 327 327 327 327 327 328 331 332 333 335 336 336 336 336 337 338 339 338
320 311 315 317 320 338 338 337 338 337 335 333 333 334 333 333 333 336 337 327 322 328 327 327 327 327 327 327 326 326 326 327 329 329 329 328 327 326 326 327 328 330 331 331 333 336 337 337 336
314 310 315 319 338 339 339 337 336 335 335 333 333 334 332 333 335 338 331 323 321 324 326 325 326 325 325 325 325 325 326 327 328 329 329 328 328 327 326 325 325 324 324 324 325 326 327 328 328
314 313 317 323 340 342 341 337 336 336 336 335 333 335 332 332 336 338 331 322 321 322 323 324 324 325 325 325 325 325 325 326 326 326 326 326 328 328 330 327 326 328 327 323 321 320 320 321 321
312 313 318 318 341 342 340 338 335 336 338 335 335 337 335 332 338 338 331 323 322 322 322 322 323 324 324 324 324 324 324 324 324 324 327 331 332 337 339 336 337 337 336 334 328 325 322 318 316
314 314 314 326 341 338 338 339 340 338 336 337 335 335 334 336 338 338 336 335 330 325 323 323 323 323 324 325 325 325 325 326 328 329 338 341 342 342 342 340 341 339 337 338 337 335 333 333 333
315 313 328 337 340 341 340 341 342 342 340 339 335 335 335 338 337 338 340 341 338 332 327 326 325 324 327 330 330 327 332 336 338 341 340 341 343 341 341 341 342 342 339 338 338 340 340 342 341
318 321 338 342 340 338 336 338 342 342 343 338 337 336 334 334 336 338 340 342 340 339 335 335 336 335 341 340 337 334 340 338 342 343 342 341 342 345 345 347 350 350 344 344 346 347 344 341 344
319 339 341 341 339 335 336 335 340 340 342 337 335 335 334 334 332 334 339 340 340 342 342 343 342 342 343 345 345 344 343 344 343 343 344 344 343 347 345 347 350 350 349 349 350 351 350 346 343
335 339 340 340 338 338 338 339 338 336 338 337 335 336 336 345 346 344 337 336 339 342 343 345 343 344 345 346 349 343 343 343 345 345 345 347 348 347 347 348 349 348 347 346 346 347 348 348 347
323 338 340 341 336 335 336 336 343 336 337 339 338 337 345 347 348 348 348 347 346 346 347 348 348 349 347 349 349 349 347 347 347 348 347 347 347 347 347 346 346 346 344 342 340 339 341 343 343
337 340 339 341 339 339 340 345 340 337 340 341 340 345 346 346 348 348 349 350 350 349 350 350 349 349 350 352 352 350 349 348 347 346 345 344 344 342 341 339 338 337 336 335 335 335 335 336 338
320 318 317 337 337 339 340 349 344 343 342 342 347 346 346 344 346 348 350 350 350 349 349 350 350 350 351 353 353 350 347 346 344 342 339 336 335 334 335 334 333 333 335 333 332 332 334 336 337
314 318 319 320 337 341 338 347 345 344 343 348 347 345 345 345 346 348 349 349 350 349 349 352 351 351 352 351 349 346 341 337 336 336 333 331 331 331 329 330 331 333 331 330 329 329 331 332 332
317 319 317 317 320 338 338 346 343 342 346 346 345 346 346 346 344 347 348 348 348 349 350 351 351 351 349 348 344 338 334 331 328 326 325 326 328 328 326 327 331 328 327 328 328 328 328 329 330
317 317 317 318 318 322 340 347 346 346 345 345 345 346 345 344 343 345 345 345 345 346 348 346 348 348 347 344 340 338 333 329 327 324 319 318 319 322 323 324 328 326 324 326 327 326 325 326 328
316 317 316 322 323 320 338 347 346 344 346 345 345 346 345 342 341 339 340 340 340 340 339 339 342 343 343 340 341 338 332 328 325 322 319 318 315 318 317 318 322 319 319 320 326 325 325 325 325
318 318 319 322 325 324 323 326 333 337 343 344 344 344 344 342 340 336 335 337 336 336 337 332 336 336 338 335 337 338 328 325 325 321 319 318 314 314 314 315 315 316 319 322 319 322 321 321 321
319 319 321 324 326 327 324 326 321 322 334 344 343 344 344 341 337 334 334 334 334 333 332 330 330 334 334 332 331 330 325 322 323 322 319 318 315 315 317 318 318 318 317 321 318 321 319 318 320
320 320 324 322 321 321 321 320 319 325 333 331 335 344 342 339 336 333 332 332 332 331 329 329 327 328 327 332 330 324 322 321 323 322 319 319 319 319 320 319 319 318 317 317 316 316 318 319 319
322 321 318 318 317 320 319 319 318 318 326 332 335 343 341 338 334 331 330 330 330 329 327 326 326 324 324 324 322 321 321 321 324 322 320 320 320 320 320 320 319 319 318 318 318 316 316 318 317
318 316 318 320 321 322 319 321 319 322 325 327 341 342 339 337 333 329 327 328 328 328 327 324 324 323 322 323 324 323 321 321 320 322 322 321 321 320 320 320 320 320 320 319 318 317 316 317 316
320 317 317 321 321 321 321 324 327 328 325 331 341 340 338 335 331 328 326 326 326 326 324 323 324 323 320 319 320 321 320 321 321 321 320 320 320 321 320 321 321 321 320 319 320 318 317 317 315
321 320 317 319 321 321 321 330 330 328 328 334 340 338 337 333 330 326 324 325 326 326 325 323 324 324 323 321 324 324 322 320 321 322 321 322 322 322 322 322 321 320 320 318 317 316 316 315 314
319 320 321 318 326 326 324 326 330 330 328 329 337 335 333 331 329 325 323 324 325 326 325 323 324 324 324 322 323 323 323 321 321 322 322 323 323 322 321 321 320 319 317 316 314 314 316 314 313
322 322 318 316 321 324 326 323 326 328 327 326 326 334 333 330 328 325 323 323 324 325 325 325 325 325 324 324 323 322 321 322 322 322 322 322 321 319 316 315 313 314 314 313 313 313 314 312 311
323 322 319 321 320 321 320 320 321 327 328 325 325 327 333 329 328 326 324 322 323 324 325 326 326 325 325 325 324 324 323 323 322 322 321 318 314 312 312 312 312 312 313 313 313 311 311 310 308
Wind_Speed
6 5 4 2 4 4 2 3 4 3 4 8 12 11 10 11 2 4 9 21 28 26 22 20 20 19 18 16 14 11 11 11 11 11 11 11 12 12 12 12 11 10 10 12 11 9 8 7 7
4 4 3 1 4 4 3 2 1 3 11 16 17 12 16 6 7 12 16 27 26 25 22 21 20 19 17 15 12 11 11 10 10 10 11 11 11 11 12 12 11 10 10 9 8 6 4 4 4
5 1 3 4 3 1 1 4 5 2 2 5 5 7 6 5 10 13 19 29 25 24 22 21 20 18 16 14 12 11 10 10 10 10 10 10 9 9 9 9 9 8 7 6 4 2 1 3 5
1 4 4 4 4 4 5 5 16 16 7 11 9 9 5 16 6 19 31 27 26 23 21 19 18 16 15 13 11 11 11 10 9 9 8 8 7 7 6 5 5 4 3 1 1 2 3 5 6
1 3 2 4 5 2 15 16 11 16 9 9 5 7 5 6 28 35 29 27 26 23 21 19 17 15 14 13 11 10 9 9 8 7 6 6 5 5 3 2 2 1 2 3 4 6 7 8 9
3 3 4 3 6 5 5 2 14 18 18 18 16 10 5 27 33 32 29 26 24 24 21 19 16 14 13 12 11 9 8 8 7 6 5 4 4 3 2 0 1 2 4 6 8 9 11 12 13
5 3 4 6 7 5 8 3 7 12 15 5 12 12 9 19 27 31 28 27 24 22 21 18 17 15 12 11 10 9 8 7 6 5 4 3 3 2 1 0 2 3 5 6 8 10 12 13 14
5 4 0 3 10 5 2 2 5 9 3 9 12 6 11 19 33 29 27 27 24 22 20 19 17 15 14 12 10 8 7 6 6 5 4 4 2 3 4 5 6 6 7 8 9 11 11 12 12
5 3 4 3 9 2 2 1 3 2 8 3 2 7 12 38 36 28 26 25 24 23 21 20 19 16 13 12 10 8 6 6 6 5 4 5 5 5 7 9 10 11 12 12 13 13 14 14 13
3 4 3 7 17 7 3 4 1 6 7 6 7 15 22 34 31 27 23 23 26 26 24 21 19 18 15 11 10 10 7 6 6 5 3 1 5 8 9 10 13 14 14 15 18 18 18 17 17
3 5 5 10 19 18 11 7 8 14 9 5 16 17 15 27 26 27 24 32 34 28 25 22 19 17 14 10 7 8 7 7 5 4 1 2 5 10 10 12 15 15 13 16 18 19 20 24 25
6 15 7 12 17 18 19 10 11 7 5 10 6 12 13 15 20 22 22 18 22 25 24 20 19 18 14 10 2 4 6 7 8 7 6 6 6 5 5 9 13 14 15 16 15 17 19 16 15
14 4 7 9 7 9 10 8 2 4 6 0 6 8 5 8 13 13 19 21 26 24 24 19 21 18 14 13 9 10 6 3 7 7 4 4 5 4 6 9 11 15 17 18 19 19 18 17 14
2 12 11 3 9 5 8 2 2 8 8 8 6 7 8 9 15 19 25 26 29 25 25 23 21 16 15 12 9 12 18 19 18 16 12 9 7 7 9 11 13 15 17 18 20 20 20 19 19
18 13 6 4 5 5 10 5 4 6 4 4 5 12 11 10 17 18 24 25 28 24 20 17 14 9 7 9 10 14 18 17 16 13 10 10 11 11 11 13 16 17 16 17 18 19 20 20 18
6 10 8 12 9 11 6 7 7 13 12 8 13 12 12 7 15 17 17 19 17 15 13 12 15 11 9 11 12 15 14 14 14 12 12 13 12 12 12 14 16 16 16 19 21 21 21 20 20
8 2 2 7 17 12 4 8 14 10 14 16 15 13 12 10 14 18 18 16 15 14 11 15 13 12 13 18 18 16 16 16 15 14 13 12 13 14 15 15 16 16 18 21 21 20 20 23 23
2 4 5 6 11 13 14 10 19 16 20 17 15 13 13 12 10 20 19 17 16 15 13 14 15 17 19 20 20 20 20 20 18 18 16 14 14 14 15 16 16 18 20 22 23 23 22 25 24
3 4 4 8 7 8 13 15 23 21 15 14 14 12 11 10 12 24 21 15 12 12 10 10 13 13 17 18 20 19 21 19 18 17 16 15 13 13 15 16 15 17 20 20 22 23 24 26 26
6 6 7 7 4 6 9 18 20 17 21 22 19 16 15 10 12 19 24 18 13 13 12 11 13 14 14 14 17 20 21 18 16 15 15 15 14 14 17 17 17 18 17 19 20 22 22 21 25
5 6 4 5 3 5 8 2 5 7 10 17 18 19 19 21 17 13 19 25 21 16 13 13 13 14 14 16 22 23 21 18 17 15 15 15 16 16 17 19 20 20 21 20 21 20 21 20 22
3 5 4 3 5 3 4 3 6 10 15 18 16 17 19 17 13 13 19 23 23 19 16 14 12 13 14 21 25 24 21 17 14 14 14 13 14 15 15 16 17 19 19 19 19 18 20 21 21
8 0 1 4 4 4 1 4 8 6 9 12 12 20 20 20 19 17 21 27 26 22 19 16 13 13 13 16 19 18 18 15 13 14 14 13 13 13 14 14 14 16 17 17 18 18 17 18 18
3 5 8 5 4 2 5 5 7 5 9 17 13 21 21 18 15 16 22 28 28 24 21 18 16 14 14 15 16 16 17 15 14 17 13 11 11 10 11 11 12 12 12 13 13 15 13 14 14
8 7 4 4 4 5 5 2 8 9 6 12 24 22 20 18 16 15 17 22 28 27 23 20 17 15 13 14 15 15 15 13 16 13 10 7 7 9 8 9 10 12 12 10 11 14 14 15 14
4 8 6 5 4 5 6 3 5 6 9 8 17 22 18 16 15 16 22 24 26 28 27 24 20 17 14 15 15 13 13 15 13 12 10 7 6 5 7 9 11 14 11 11 9 10 12 14 13
5 2 5 6 2 3 4 1 4 6 9 12 14 16 18 18 16 17 22 24 28 31 30 28 23 18 16 16 12 11 11 12 12 8 6 4 2 2 5 8 11 13 13 11 12 14 14 9 14
8 6 3 4 3 3 4 4 5 3 6 9 12 13 11 13 14 15 22 27 30 35 32 30 27 24 20 18 16 15 18 13 11 8 6 3 3 1 5 9 11 10 10 12 14 15 12 12 15
1 1 5 5 5 5 2 5 6 10 8 10 11 16 18 17 17 17 23 30 32 35 36 35 33 30 26 22 19 16 14 12 12 9 7 4 3 8 10 11 12 13 14 15 14 15 12 14 17
6 5 5 5 6 3 4 6 5 9 12 10 10 10 16 20 19 18 25 28 28 30 34 38 35 33 29 21 20 18 16 14 14 12 7 5 8 9 11 13 14 14 13 13 13 12 13 15 18
Wind_Direction
299 327 1 113 76 81 226 263 302 215 23 66 83 85 105 42 82 158 130 167 150 143 139 134 134 130 128 127 123 116 109 105 100 96 95 97 98 96 97 96 94 93 101 115 117 109 97 86 82
314 355 62 3 73 86 282 240 8 354 126 107 88 71 40 52 47 116 119 155 151 141 136 134 134 133 131 130 125 118 113 107 102 100 100 101 101 100 99 96 94 95 101 110 112 104 77 50 39
321 112 89 101 63 191 186 178 133 105 21 332 81 64 82 112 118 147 156 153 151 139 136 134 135 134 134 132 128 123 116 110 104 100 99 103 105 104 101 99 97 98 104 116 122 117 61 359 343
26 28 25 89 189 205 181 162 134 139 130 118 120 65 54 134 120 143 147 150 144 136 135 134 135 135 136 134 132 127 121 113 106 101 99 103 109 111 109 108 109 112 119 153 226 268 289 302 305
205 62 59 87 233 52 123 136 140 115 115 94 105 93 73 70 134 142 149 148 141 141 140 139 139 139 139 137 134 129 122 114 109 106 105 107 108 110 116 129 155 195 228 244 255 265 272 279 287
5 101 53 63 45 56 25 71 127 99 102 100 105 111 90 136 140 152 149 148 145 145 146 145 146 145 144 142 140 137 133 127 123 119 114 109 103 95 93 101 292 288 281 276 272 272 273 276 280
153 88 210 145 127 100 126 287 116 122 137 152 141 119 129 147 149 155 152 148 150 151 152 153 153 152 150 148 148 147 145 139 130 124 119 117 103 98 76 342 300 305 310 304 298 292 289 285 283
125 112 243 166 166 95 130 276 98 35 63 115 127 154 161 150 157 158 153 152 154 159 160 160 158 157 154 152 153 152 150 139 126 117 101 85 23 346 338 310 308 307 310 317 311 308 307 306 302
142 57 17 11 88 121 23 4 303 341 104 360 18 108 141 150 156 150 156 158 165 168 170 167 165 162 162 157 156 161 156 149 137 138 102 73 29 348 322 318 313 312 314 316 318 316 312 312 310
110 81 232 147 129 110 108 92 4 87 24 8 108 149 139 149 151 159 170 177 176 175 175 175 172 168 168 167 171 175 167 165 157 146 118 41 20 358 338 342 330 326 316 315 315 314 307 302 305
99 147 191 135 128 121 125 148 165 133 141 205 159 169 156 158 172 172 181 179 179 177 174 177 174 174 175 175 185 197 199 208 203 199 155 335 354 26 32 29 26 23 349 332 332 330 315 304 299
106 150 163 160 131 127 144 134 150 163 151 120 169 172 167 177 184 182 184 179 173 185 180 177 184 179 189 189 162 247 245 244 237 247 258 289 329 33 17 15 30 29 13 6 9 9 9 349 322
103 144 136 152 111 110 132 145 223 199 126 84 192 183 124 91 109 121 155 171 170 176 180 165 161 169 158 177 109 123 140 234 244 242 229 154 105 43 2 6 5 2 1 360 353 349 347 342 340
56 133 112 109 122 125 135 69 327 216 148 186 178 129 100 101 105 102 111 119 136 146 148 148 147 147 142 144 120 107 123 121 120 116 106 90 69 44 29 17 7 359 355 352 352 350 341 333 332
130 107 55 172 157 120 115 9 264 51 100 151 128 122 118 115 102 103 119 121 129 128 133 143 139 138 151 140 119 125 115 111 104 93 76 56 44 38 32 22 18 14 13 12 8 3 359 350 340
167 124 152 217 211 177 123 209 243 220 150 219 149 141 126 125 121 112 113 115 124 128 114 117 147 128 134 141 139 114 105 98 89 79 64 56 50 40 33 34 31 24 25 21 19 14 9 6 357
5 218 278 148 207 163 197 160 224 202 162 170 149 140 134 122 112 116 111 105 105 118 115 106 124 128 137 126 120 110 97 89 86 74 59 51 50 49 47 43 41 39 35 29 21 21 19 10 357
284 9 315 270 190 197 185 176 190 211 172 163 152 153 148 145 148 130 120 113 104 104 106 105 114 124 130 127 118 107 98 91 78 68 63 58 53 48 48 49 48 41 38 35 32 30 31 20 4
204 232 250 270 250 127 173 158 182 181 160 161 167 160 146 140 137 128 124 121 114 107 121 108 136 134 141 134 121 115 105 96 81 73 66 61 56 51 52 51 51 42 40 38 35 31 28 27 20
266 265 277 276 38 84 161 175 182 175 181 178 173 166 154 139 147 139 137 134 132 126 116 113 130 135 140 130 134 131 119 106 95 89 79 69 66 66 60 55 48 41 36 39 38 31 28 28 28
264 211 204 210 355 39 119 26 186 224 197 191 185 173 163 161 156 154 148 146 145 145 142 123 130 139 142 132 138 137 126 120 116 108 95 75 63 67 64 61 57 49 47 46 42 37 35 23 25
227 214 198 104 112 200 115 249 228 212 203 203 182 173 173 164 161 159 151 148 149 146 148 143 137 147 141 142 141 147 142 132 135 126 108 93 75 68 63 58 53 48 43 45 39 41 34 28 22
214 178 91 77 117 105 42 101 259 149 206 215 183 178 176 172 167 162 158 158 155 153 152 151 143 147 149 161 161 155 139 131 137 139 120 100 86 70 60 51 46 42 38 39 32 27 24 23 22
81 72 36 47 93 43 232 124 291 211 203 217 174 178 176 170 163 159 157 153 153 153 152 151 152 140 146 151 149 148 141 135 141 150 129 108 86 66 49 39 32 24 18 17 19 18 24 24 19
78 59 7 359 12 231 317 84 239 304 224 198 173 176 174 168 160 159 153 155 157 159 159 155 154 142 142 145 143 144 142 138 123 142 148 119 86 63 35 19 4 351 344 345 354 359 4 359 359
186 145 153 195 206 250 319 296 286 318 304 100 160 162 159 160 165 165 165 162 161 164 161 157 153 146 146 145 138 135 134 124 119 112 120 102 65 40 12 357 349 352 359 354 335 344 345 345 353
175 124 184 110 79 82 266 197 352 351 28 71 120 144 162 168 170 170 166 163 165 170 168 164 159 157 157 152 148 152 156 135 130 117 120 112 61 8 338 338 340 349 355 354 344 350 347 357 354
137 158 61 13 168 220 280 284 234 232 142 123 140 155 170 171 170 171 169 171 175 175 173 169 167 168 168 170 173 163 158 155 156 152 153 150 133 57 348 2 12 19 15 3 2 3 7 359 354
49 107 68 119 137 169 201 265 216 204 190 172 174 178 177 178 178 178 176 179 178 177 175 175 174 174 177 180 177 173 169 167 169 164 151 124 54 20 12 9 10 9 7 1 355 355 0 1 356
161 231 139 131 260 217 160 263 276 196 200 191 201 185 184 181 180 180 179 177 175 174 176 179 180 180 180 183 180 178 179 182 161 148 123 67 57 44 29 24 22 15 7 357 353 357 356 358 1